STARLINK-32124, 60298

Orbit data source: Space-Track

STARLINK-32124, 60298 is a payload satellite owned by SpaceX/Seattle (US) in LEO that was launched on Sun, 28 Jul 2024 UTC via an FALCON 9 launch vehicle from the Air Force Eastern Test Range (AFETR). Payload-class satellites include a variety of spacecraft equipped with specific instruments for various scientific and technological missions. These include communications satellites like Starlink; space stations such as the ISS; scientific satellites like the Hubble; Earth observation satellites from companies like Planet Labs, Umbra, and HawkEye 360; GPS; miniature CubeSats for education and research; and military/defense satellites.

Loading next visibility...
Identifier
60298, 2024-132W
Orbit
LEO
Last TLE update
4 hours ago
Origin
Manufacturer
SpaceX/Seattle
Mission
Operational spacecraft
Bus & Motor
STARLINK V2M, Unknown motor
Mass
730 kg wet, ~700 kg dry
Launch date (UTC)
2024-07-28 (11 months ago)
Launch vehicle
FALCON 9
Launch site
Air Force Eastern Test Range (AFETR)
Object type
Payload
Rocket body
Debris
Shape & HBR
Unknown
Radar Cross Section
Large (>1 m²)

Expand to show TLE details & history

TLE from 4 hours ago
0 STARLINK-32124
1 60298U 24132W   25189.19277987  .00000268  00000-0  21164-4 0  9996
2 60298  53.1598 108.3211 0001076  81.7679 278.3443 15.30190221 54123
Epoch: 2025-07-08T04:37Z
TLE epoch observation values (Epoch: 2025-07-08T04:37:36.18Z)
Latitude
-0.0001°
Longitude
112.52899°
Altitude
476.037 km
Speed
7.629 km/s
True Right ascension
07h 13m 17s
True Declination
0° 00' 00"
Sunlit
Object was in daylight at epoch
Visualization orbit readout
Latitude
53.14602°
Longitude
-151.86414°
Altitude
481.058 km
Speed
7.632 km/s
Apparent Right ascension
10h 39m 16s
Apparent Declination
11° 22' 35"
Sunlit
Object is in daylight
Visualization observer readout
Local Sidereal Time
20:15:51
Azimuth
319.026° NNW
Elevation
-28.873°
Doppler factor
1
Orbital elements
Apogee altitude
476.238 km
Perigee altitude
474.763 km
Semi-major axis
6,853.638 km
Eccentricity
0.00011
Inclination
53.1598°
RAAN
108.3211°
Arg. of periapsis
81.7679°
True anomaly
Unknown
Mean anomaly
278.3443°
Eccentric anomaly
Unknown
Mean motion
3.82526 °/min
Orbital period
94.11 mins
BSTAR
0.000021164
Loading maneuver chart data...
Loading SW <> Apogee altitude chart data...
Loading historical data...
Loading historical data...
Loading historical data...
Loading historical data...
Loading historical data...
Loading historical data...
Loading historical data...

STARLINK-32124 Visibility forecast

Observer location: undefined°, undefined°

Span
Click to sort rows by Start time (UTC) header in descending order
Start Az.
Max El. time (UTC)
Max El. Az.
Max El.
End time (UTC)
End Az.
5 mins2025-07-08 20:27:10.810Z183.817° SSW2025-07-08 20:30:10.810Z124.361° SE22.364°2025-07-08 20:32:10.810Z83.287° E
4 mins2025-07-08 22:06:10.810Z275.132° WNW2025-07-08 22:08:10.810Z347.046° N31.474°2025-07-08 22:10:10.810Z30.473° NE
4 mins2025-07-09 03:03:10.810Z351.049° N2025-07-09 03:04:10.810Z15.097° NNE23.567°2025-07-09 03:07:10.810Z82.084° E
5 mins2025-07-09 04:40:10.810Z291.699° WNW2025-07-09 04:42:10.810Z249.137° W33.201°2025-07-09 04:45:10.810Z159.195° S
|